Location: Les Salelles
(44.4192°N, 4.1044°E)
Time: 15:54:53
(UTC+00:00)

Cosmos 2058 Rocket - Pass Details

Date: 20 January 2021
Orbit: 611 x 638 km, 82.5° (Epoch: 25 February)

Event Time Altitude Azimuth Distance (km) Brightness Sun altitude
Rises 17:22:06 0° 359° (N) 2,941 6.3 -8.3°
Reaches altitude 10° 17:24:30 10° 8° (N) 2,031 5.4 -8.7°
Maximum altitude 17:28:41 37° 75° (ENE) 1,002 3.6 -9.4°
Drops below altitude 10° 17:32:51 10° 143° (SE) 2,024 5.5 -10.1°
Sets 17:35:13 0° 152° (SSE) 2,928 6.4 -10.5°
